EDW489 EDDH-LSZH

Flight info

Callsign EDW489
Flight time 1h 12m
Altitude 35000
Route IDEKO7G/33 IDEKO N850 ROBEG DCT SWALM/N0417F340 DCT OMOGI/N0420F350 T721 LAMGO/N0355F230 T721 RILAX
Aircraft A20N/M-SDE2E3FGHIRWXY/LB1

Departure

Time 2026-04-30 18:00
Airport Hamburg Helmut Schmidt Airport (EDDH)

Arrival

Time 2026-04-30 19:12
Airport Zürich Airport (LSZH)
Time Latitude Longitude Altitude Speed Heading
2026-04-30 17:39 53.63334 10.00354 46 ft 0 kts 86°
2026-04-30 17:48 53.63333 10.00305 45 ft 2 kts 89°
2026-04-30 17:49 53.63346 10.00231 41 ft 1 kts 175°
2026-04-30 17:52 53.63185 10.00251 45 ft 16 kts 175°
2026-04-30 17:53 53.62821 9.99986 46 ft 0 kts 219°
2026-04-30 17:55 53.62823 9.99835 47 ft 18 kts 275°
2026-04-30 17:56 53.62918 9.99698 45 ft 0 kts 333°
2026-04-30 17:59 53.63776 9.98954 39 ft 145 kts 333°
2026-04-30 18:00 53.68056 9.95023 2801 ft 194 kts 326°
2026-04-30 18:00 53.71298 9.90148 3961 ft 230 kts 282°
2026-04-30 18:01 53.70728 9.84442 4367 ft 257 kts 250°
2026-04-30 18:02 53.68822 9.75928 4568 ft 259 kts 250°
2026-04-30 18:02 53.67099 9.67337 4570 ft 259 kts 252°
2026-04-30 18:03 53.65006 9.59045 4566 ft 259 kts 222°
2026-04-30 18:04 53.59841 9.56835 4568 ft 260 kts 186°
2026-04-30 18:05 53.52566 9.55452 6800 ft 266 kts 187°
2026-04-30 18:06 53.44979 9.53950 9330 ft 278 kts 187°
2026-04-30 18:07 53.37192 9.52416 11311 ft 285 kts 187°
2026-04-30 18:08 53.31169 9.51235 13665 ft 296 kts 187°
2026-04-30 18:09 53.22808 9.49598 16536 ft 309 kts 187°
2026-04-30 18:10 53.14085 9.47898 19127 ft 322 kts 187°
2026-04-30 18:11 53.05022 9.46140 21474 ft 334 kts 187°
2026-04-30 18:11 52.98011 9.44779 23077 ft 343 kts 187°
2026-04-30 18:12 52.90841 9.43230 23835 ft 347 kts 188°
2026-04-30 18:13 52.86043 9.42195 23997 ft 349 kts 187°
2026-04-30 18:13 52.79640 9.40830 24000 ft 348 kts 187°
2026-04-30 18:14 52.74025 9.39638 24000 ft 348 kts 187°
2026-04-30 18:15 52.66820 9.38112 24000 ft 348 kts 187°
2026-04-30 18:15 52.59589 9.36501 24452 ft 352 kts 189°
2026-04-30 18:16 52.54747 9.35187 25439 ft 356 kts 189°
2026-04-30 18:16 52.49823 9.33870 26318 ft 360 kts 189°
2026-04-30 18:17 52.47340 9.33218 26734 ft 363 kts 189°
2026-04-30 18:17 52.44840 9.32564 27144 ft 365 kts 189°
2026-04-30 18:17 52.39789 9.31248 27921 ft 370 kts 189°
2026-04-30 18:18 52.37241 9.30585 28294 ft 372 kts 189°
2026-04-30 18:18 52.34672 9.29917 28656 ft 374 kts 189°
2026-04-30 18:18 52.32092 9.29245 28993 ft 377 kts 189°
2026-04-30 18:18 52.29496 9.28566 29332 ft 379 kts 189°
2026-04-30 18:19 52.26886 9.27884 29663 ft 381 kts 189°
2026-04-30 18:19 52.25148 9.27430 29882 ft 382 kts 189°
2026-04-30 18:19 52.22505 9.26906 30194 ft 385 kts 183°
2026-04-30 18:19 52.18915 9.26749 30392 ft 395 kts 181°
2026-04-30 18:20 52.16140 9.26639 30476 ft 403 kts 181°
2026-04-30 18:20 52.11359 9.26438 30609 ft 418 kts 182°
2026-04-30 18:21 52.05427 9.26182 30777 ft 434 kts 182°
2026-04-30 18:21 51.99279 9.25916 30986 ft 448 kts 182°
2026-04-30 18:21 51.96172 9.25782 31391 ft 446 kts 182°
2026-04-30 18:22 51.93072 9.25648 31758 ft 446 kts 182°
2026-04-30 18:22 51.86875 9.25382 32483 ft 445 kts 182°
2026-04-30 18:22 51.83782 9.25249 32823 ft 444 kts 182°
2026-04-30 18:23 51.80691 9.25116 33169 ft 444 kts 182°
2026-04-30 18:23 51.77651 9.24986 33475 ft 443 kts 182°
2026-04-30 18:23 51.74572 9.24854 33798 ft 442 kts 182°
2026-04-30 18:23 51.71499 9.24723 34113 ft 441 kts 182°
2026-04-30 18:24 51.65373 9.24462 34686 ft 440 kts 182°
2026-04-30 18:24 51.62307 9.24332 34904 ft 440 kts 182°
2026-04-30 18:25 51.56210 9.24073 34997 ft 438 kts 182°
2026-04-30 18:25 51.47085 9.23686 35007 ft 438 kts 182°
2026-04-30 18:26 51.37935 9.23301 34996 ft 439 kts 182°
2026-04-30 18:27 51.28788 9.22917 34997 ft 439 kts 182°
2026-04-30 18:28 51.19643 9.22535 35005 ft 438 kts 181°
2026-04-30 18:28 51.10507 9.22154 34997 ft 438 kts 181°
2026-04-30 18:29 50.98315 9.21649 35004 ft 438 kts 181°
2026-04-30 18:30 50.86135 9.21147 35007 ft 438 kts 181°
2026-04-30 18:31 50.76989 9.20771 34996 ft 438 kts 181°
2026-04-30 18:32 50.67874 9.19780 35005 ft 438 kts 188°
2026-04-30 18:33 50.58837 9.17879 35007 ft 439 kts 188°
2026-04-30 18:33 50.49746 9.15996 35002 ft 439 kts 188°
2026-04-30 18:34 50.40669 9.14125 35005 ft 438 kts 188°
2026-04-30 18:35 50.34632 9.12884 34995 ft 438 kts 187°
2026-04-30 18:35 50.28585 9.11645 34999 ft 437 kts 187°
2026-04-30 18:36 50.19543 9.09798 35002 ft 437 kts 187°
2026-04-30 18:37 50.10496 9.07956 35006 ft 438 kts 187°
2026-04-30 18:37 50.04464 9.06732 34999 ft 437 kts 187°
2026-04-30 18:38 49.98438 9.05513 34999 ft 437 kts 187°
2026-04-30 18:38 49.92410 9.04296 35002 ft 437 kts 187°
2026-04-30 18:39 49.86375 9.03081 35006 ft 438 kts 187°
2026-04-30 18:39 49.80338 9.01869 34996 ft 437 kts 187°
2026-04-30 18:40 49.74292 9.00657 34999 ft 438 kts 187°
2026-04-30 18:40 49.68257 8.99451 34997 ft 438 kts 187°
2026-04-30 18:41 49.62225 8.98133 35005 ft 438 kts 190°
2026-04-30 18:41 49.56238 8.96410 34997 ft 439 kts 191°
2026-04-30 18:42 49.50220 8.94700 34996 ft 438 kts 190°
2026-04-30 18:42 49.41217 8.92226 35006 ft 438 kts 190°
2026-04-30 18:45 49.08248 8.83251 35002 ft 437 kts 190°
2026-04-30 18:46 49.02254 8.81620 35008 ft 438 kts 190°
2026-04-30 18:46 48.96253 8.79993 35001 ft 438 kts 190°
2026-04-30 18:47 48.90261 8.78372 35001 ft 438 kts 190°
2026-04-30 18:47 48.84247 8.76751 35000 ft 439 kts 190°
2026-04-30 18:48 48.78227 8.75137 34996 ft 439 kts 190°
2026-04-30 18:48 48.72212 8.73527 34942 ft 437 kts 190°
2026-04-30 18:48 48.69231 8.72731 34540 ft 435 kts 190°
2026-04-30 18:49 48.66247 8.71934 33898 ft 436 kts 190°
2026-04-30 18:49 48.63254 8.71137 33158 ft 437 kts 190°
2026-04-30 18:49 48.60284 8.70346 32283 ft 442 kts 190°
2026-04-30 18:49 48.57251 8.69539 31510 ft 443 kts 190°
2026-04-30 18:50 48.54214 8.68733 30801 ft 443 kts 190°
2026-04-30 18:50 48.51176 8.67927 30067 ft 443 kts 190°
2026-04-30 18:50 48.48145 8.67125 29345 ft 442 kts 190°
2026-04-30 18:50 48.45113 8.66322 28578 ft 442 kts 190°
2026-04-30 18:51 48.42088 8.65523 27830 ft 441 kts 190°
2026-04-30 18:51 48.39065 8.64725 27080 ft 440 kts 190°
2026-04-30 18:51 48.36061 8.63911 26333 ft 438 kts 191°
2026-04-30 18:51 48.33076 8.63016 25583 ft 437 kts 192°
2026-04-30 18:52 48.30105 8.62096 24833 ft 435 kts 192°
2026-04-30 18:52 48.27146 8.61182 24092 ft 433 kts 192°
2026-04-30 18:52 48.24205 8.60284 23337 ft 431 kts 192°
2026-04-30 18:52 48.21276 8.59397 22586 ft 428 kts 192°
2026-04-30 18:53 48.18363 8.58520 21830 ft 426 kts 192°
2026-04-30 18:53 48.15470 8.57651 21067 ft 424 kts 191°
2026-04-30 18:53 48.12578 8.56789 20298 ft 422 kts 191°
2026-04-30 18:53 48.09708 8.55935 19529 ft 419 kts 191°
2026-04-30 18:54 48.06859 8.55087 18751 ft 417 kts 191°
2026-04-30 18:54 48.04015 8.54243 17975 ft 415 kts 191°
2026-04-30 18:54 48.01194 8.53406 17201 ft 412 kts 191°
2026-04-30 18:54 47.98398 8.52576 16429 ft 409 kts 191°
2026-04-30 18:55 47.95603 8.51902 15655 ft 406 kts 186°
2026-04-30 18:55 47.90004 8.52110 14107 ft 400 kts 173°
2026-04-30 18:55 47.87258 8.52651 13333 ft 397 kts 173°
2026-04-30 18:56 47.81823 8.53687 11769 ft 387 kts 173°
2026-04-30 18:56 47.79201 8.54178 10999 ft 374 kts 173°
2026-04-30 18:56 47.76650 8.54654 10238 ft 364 kts 173°
2026-04-30 18:57 47.71969 8.55937 9823 ft 318 kts 162°
2026-04-30 18:57 47.70019 8.57112 10018 ft 286 kts 154°
2026-04-30 18:57 47.68271 8.58348 10196 ft 283 kts 155°
2026-04-30 18:58 47.64678 8.60818 9637 ft 284 kts 155°
2026-04-30 18:58 47.62892 8.62042 8868 ft 290 kts 155°
2026-04-30 18:58 47.61038 8.63314 8015 ft 297 kts 155°
2026-04-30 18:59 47.57318 8.65872 7033 ft 282 kts 155°
2026-04-30 19:00 47.52146 8.69424 6928 ft 270 kts 155°
2026-04-30 19:00 47.50445 8.70590 6782 ft 270 kts 155°
2026-04-30 19:00 47.47031 8.72951 6738 ft 271 kts 155°
2026-04-30 19:01 47.43610 8.75311 6729 ft 267 kts 155°
2026-04-30 19:01 47.41973 8.76430 6733 ft 252 kts 155°
2026-04-30 19:02 47.38920 8.78506 6733 ft 241 kts 155°
2026-04-30 19:02 47.35887 8.80565 6725 ft 239 kts 155°
2026-04-30 19:03 47.32860 8.82622 6729 ft 240 kts 155°
2026-04-30 19:03 47.29823 8.84655 6726 ft 239 kts 162°
2026-04-30 19:04 47.26706 8.83947 6444 ft 234 kts 220°
2026-04-30 19:04 47.25061 8.79868 5964 ft 233 kts 246°
2026-04-30 19:05 47.23766 8.75709 5726 ft 209 kts 245°
2026-04-30 19:05 47.23138 8.72012 5618 ft 177 kts 285°
2026-04-30 19:06 47.24747 8.69328 5422 ft 180 kts 329°
2026-04-30 19:06 47.25852 8.68487 5323 ft 178 kts 334°
2026-04-30 19:06 47.27634 8.67273 5159 ft 150 kts 334°
2026-04-30 19:07 47.29421 8.66051 4935 ft 142 kts 334°
2026-04-30 19:07 47.30310 8.65443 4771 ft 140 kts 334°
2026-04-30 19:08 47.32086 8.64228 4390 ft 139 kts 334°
2026-04-30 19:08 47.33826 8.63036 4000 ft 138 kts 334°
2026-04-30 19:08 47.34697 8.62439 3809 ft 138 kts 334°
2026-04-30 19:09 47.36433 8.61249 3407 ft 137 kts 334°
2026-04-30 19:09 47.37297 8.60657 3203 ft 137 kts 334°
2026-04-30 19:09 47.38170 8.60058 3006 ft 136 kts 334°
2026-04-30 19:10 47.39882 8.58882 2610 ft 135 kts 334°
2026-04-30 19:10 47.41578 8.57700 2204 ft 135 kts 335°
2026-04-30 19:11 47.42429 8.57133 2005 ft 133 kts 334°
2026-04-30 19:11 47.44105 8.55976 1631 ft 134 kts 335°
2026-04-30 19:11 47.44948 8.55407 1453 ft 133 kts 335°
2026-04-30 19:12 47.45736 8.54866 1399 ft 105 kts 334°
2026-04-30 19:12 47.46206 8.54532 1401 ft 47 kts 335°
2026-04-30 19:12 47.46327 8.54447 1402 ft 0 kts 334°